Stations météo

réclame
Mon MeteoGroup
Ibiza/Es Codola, Espagne (8373): Température de l'air & dewpoint: 19.04.2018 14:00:00 - 25.04.2018 14:00:00 (CEST)Ibiza/Es Codola, Espagne (8373): Vitesse du vent: 19.04.2018 14:00:00 - 25.04.2018 14:00:00 (CEST)Ibiza/Es Codola, Espagne (8373): Direction du vent: 19.04.2018 14:00:00 - 25.04.2018 14:00:00 (CEST)Ibiza/Es Codola, Espagne (8373): reduced air pressure: 19.04.2018 14:00:00 - 25.04.2018 14:00:00 (CEST)Ibiza/Es Codola, Espagne (8373): visibility: 19.04.2018 14:00:00 - 25.04.2018 14:00:00 (CEST)
Date & Time tt [°C] td [°C] ff [km/h] ff [knt] dd ppp [hPa] vv [km]
25.04.2018 14:00:00 16,7 14,9 16 9 NNE 1016,0 12
25.04.2018 13:00:00 17,1 13,8 16 9 ENE 1017,0 10
25.04.2018 12:00:00 19,7 10,9 22 12 ENE 1016,4 10
25.04.2018 11:00:00 20,2 9,7 28 15 ENE 1016,4 15
25.04.2018 10:00:00 20,7 8,0 22 12 NE 1015,8 10
25.04.2018 09:00:00 19,4 9,8 18 10 NE 1015,1 10
25.04.2018 08:00:00 17,7 9,8 11 6 NE 1015,2 25
25.04.2018 07:00:00 18,7 9,7 16 9 NE 1014,9 10
25.04.2018 06:00:00 18,5 8,2 15 8 N 1014,6 10
25.04.2018 05:00:00 18,7 7,8 18 10 NNE 1014,5 18
25.04.2018 04:00:00 18,9 7,6 21 11 NNE 1014,7 10
25.04.2018 03:00:00 18,6 8,2 16 9 NNE 1015,5 10
25.04.2018 02:00:00 18,7 8,4 21 11 NNE 1015,7 18
25.04.2018 01:00:00 18,7 8,1 15 8 NE 1017,0 10
25.04.2018 00:00:00 18,7 8,4 18 10 NE 1016,1 10
24.04.2018 23:00:00 18,7 9,0 21 11 NE 1016,1 18
24.04.2018 22:00:00 18,7 8,6 16 9 NE 1016,6 10
24.04.2018 21:00:00 19,5 8,2 18 10 NE 1015,8 10
24.04.2018 20:00:00 19,5 9,1 16 9 NE 1016,2 10
24.04.2018 19:00:00 20,6 9,4 26 14 NE 1016,2 10
24.04.2018 18:00:00 21,6 9,5 29 16 ENE 1015,3 10
24.04.2018 17:00:00 22,3 8,4 31 17 ENE 1015,8 18
24.04.2018 16:00:00 22,1 9,9 35 19 ENE 1016,3 10
24.04.2018 15:00:00 22,2 8,2 34 18 ENE 1016,7 10
24.04.2018 14:00:00 21,2 8,5 29 16 ENE 1017,2 18
24.04.2018 13:00:00 20,2 10,0 31 17 ENE 1017,8 10
24.04.2018 12:00:00 21,7 8,9 34 18 ENE 1017,8 10
24.04.2018 11:00:00 21,7 8,9 26 14 ENE 1018,9 10
24.04.2018 10:00:00 20,1 9,6 24 13 NE 1018,3 10
24.04.2018 09:00:00 19,1 9,0 9 5 NNE 1019,1 10
24.04.2018 08:00:00 18,7 8,6 18 10 NNE 1018,5 10
24.04.2018 07:00:00 17,2 9,9 18 10 NNE 1017,1 10
24.04.2018 06:00:00 17,2 9,4 21 11 NE 1016,6 10
24.04.2018 05:00:00 18,0 8,8 24 13 NE 1016,7 15
24.04.2018 04:00:00 18,6 8,1 22 12 NE 1016,9 10
24.04.2018 03:00:00 18,6 8,8 24 13 NE 1016,9 10
24.04.2018 02:00:00 17,2 9,1 13 7 NE 1017,4 15
24.04.2018 01:00:00 18,2 9,3 16 9 NE 1017,5 10
24.04.2018 00:00:00 18,2 10,4 21 11 NE 1017,4 10
23.04.2018 23:00:00 18,4 10,2 24 13 NNE 1017,8 15
23.04.2018 22:00:00 18,1 10,5 22 12 NNE 1017,8 10
23.04.2018 21:00:00 18,6 11,9 16 9 NNE 1017,5 10
23.04.2018 20:00:00 20,0 11,8 21 11 NE 1017,0 10
23.04.2018 19:00:00 20,7 12,1 22 12 ENE 1017,1 10
23.04.2018 18:00:00 20,1 13,3 31 17 NE 1017,1 10
23.04.2018 17:00:00 20,7 13,4 29 16 ENE 1017,3 10
23.04.2018 16:00:00 21,7 12,9 28 15 ENE 1017,8 10
23.04.2018 15:00:00 22,2 11,3 26 14 ENE 1018,4 10
23.04.2018 14:00:00 21,9 11,2 31 17 ENE 1018,5 10
23.04.2018 13:00:00 21,7 11,4 29 16 ENE 1018,6 10
23.04.2018 12:00:00 21,5 11,6 31 17 ENE 1018,5 10
23.04.2018 11:00:00 20,7 11,2 28 15 ENE 1018,4 10
23.04.2018 10:00:00 20,6 10,8 21 11 NE 1018,1 10
23.04.2018 09:00:00 18,2 11,4 16 9 NNE 1018,0 10
23.04.2018 08:00:00 17,1 11,0 16 9 NNE 1017,7 20
23.04.2018 07:00:00 16,2 11,4 15 8 NE 1017,1 10
23.04.2018 06:00:00 15,5 11,7 15 8 NE 1016,8 10
23.04.2018 05:00:00 16,0 12,2 16 9 NNE 1017,0 18
23.04.2018 04:00:00 15,7 12,3 15 8 NNE 1017,4 10
23.04.2018 03:00:00 15,9 12,1 15 8 NNE 1017,7 10
23.04.2018 02:00:00 16,7 12,0 21 11 NE 1017,9 10
23.04.2018 01:00:00 16,7 12,4 18 10 NE 1018,0 10
23.04.2018 00:00:00 16,7 12,2 16 9 NE 1018,1 10
22.04.2018 23:00:00 16,5 13,0 16 9 NE 1018,0 18
22.04.2018 22:00:00 16,7 12,9 15 8 NE 1017,5 10
22.04.2018 21:00:00 16,9 12,8 15 8 NE 1017,1 10
22.04.2018 20:00:00 17,4 13,1 16 9 ENE 1016,8 20
22.04.2018 19:00:00 18,4 13,4 18 10 NE 1017,0 10
22.04.2018 18:00:00 19,2 13,4 18 10 ENE 1017,2 10
22.04.2018 17:00:00 19,7 13,2 24 13 ENE 1017,2 18
22.04.2018 16:00:00 20,3 12,5 24 13 ENE 1017,6 10
22.04.2018 15:00:00 20,2 13,2 21 11 ENE 1018,3 10
22.04.2018 14:00:00 20,1 13,0 22 12 ENE 1018,2 25
22.04.2018 13:00:00 19,8 13,5 18 10 ENE 1018,7 10
22.04.2018 12:00:00 19,7 13,0 24 13 ENE 1018,6 10
22.04.2018 11:00:00 19,6 12,1 18 10 ENE 1018,5 20
22.04.2018 10:00:00 18,4 13,0 16 9 ENE 1018,2 10
22.04.2018 09:00:00 16,6 12,9 11 6 NE 1018,0 10
22.04.2018 08:00:00 14,8 11,9 13 7 NE 1017,8 10
22.04.2018 07:00:00 13,7 9,7 8 4 NNE 1017,6 10
22.04.2018 06:00:00 14,7 9,9 11 6 NNE 1017,6 10
22.04.2018 05:00:00 14,2 11,0 13 7 NE 1017,9 20
22.04.2018 04:00:00 13,0 10,7 9 5 NNE 1018,4 10
22.04.2018 03:00:00 13,3 10,7 5 3 NNE 1018,9 10
22.04.2018 02:00:00 15,0 11,2 8 4 NE 1019,3 20
22.04.2018 01:00:00 14,8 10,6 11 6 NE 1019,5 10
22.04.2018 00:00:00 15,0 10,4 8 4 NE 1019,8 10
21.04.2018 23:00:00 15,1 10,7 9 5 NE 1019,8 20
21.04.2018 22:00:00 16,6 11,1 9 5 NNE 1019,4 10
21.04.2018 21:00:00 16,0 11,2 8 4 ENE 1019,2 10
21.04.2018 20:00:00 17,7 11,0 9 5 ENE 1019,1 25
21.04.2018 19:00:00 18,5 12,1 9 5 ENE 1019,2 10
21.04.2018 18:00:00 18,7 10,3 11 6 ENE 1019,4 10
21.04.2018 17:00:00 19,0 10,8 13 7 ENE 1019,6 25
21.04.2018 16:00:00 18,7 11,9 15 8 ENE 1020,0 10
21.04.2018 15:00:00 19,2 11,9 18 10 NE 1020,1 10
21.04.2018 14:00:00 19,1 12,6 18 10 ENE 1020,4 25
21.04.2018 13:00:00 19,7 12,1 16 9 ENE 1020,9 10
21.04.2018 12:00:00 19,7 10,9 18 10 ENE 1021,2 10
21.04.2018 11:00:00 19,6 10,6 16 9 ENE 1021,0 10
21.04.2018 10:00:00 18,5 12,0 15 8 ENE 1020,5 10
21.04.2018 09:00:00 17,0 11,3 15 8 NE 1020,0 10
21.04.2018 08:00:00 14,4 11,0 9 5 NNE 1020,1 10
21.04.2018 07:00:00 12,5 10,2 11 6 NE 1019,6 10
21.04.2018 06:00:00 13,0 10,3 9 5 NNE 1019,8 10
21.04.2018 05:00:00 14,4 10,8 11 6 NNE 1020,2 15
21.04.2018 04:00:00 14,1 10,7 11 6 NNE 1020,3 10
21.04.2018 03:00:00 14,1 10,1 9 5 NNE 1020,4 10
21.04.2018 02:00:00 14,5 10,5 11 6 NNE 1020,7 15
21.04.2018 01:00:00 13,9 10,7 9 5 NNE 1021,1 10
21.04.2018 00:00:00 14,6 11,6 5 3 N 1021,4 10
20.04.2018 23:00:00 15,4 12,5 9 5 NE 1021,5 15
20.04.2018 22:00:00 16,2 12,8 15 8 NE 1021,2 10
20.04.2018 21:00:00 16,4 13,0 13 7 NE 1020,6 10
20.04.2018 20:00:00 16,9 13,2 15 8 NE 1020,6 20
20.04.2018 19:00:00 17,9 13,4 15 8 ENE 1020,8 10
20.04.2018 18:00:00 18,4 13,5 18 10 ENE 1021,1 10
20.04.2018 17:00:00 19,2 13,0 22 12 ENE 1021,2 20
20.04.2018 16:00:00 19,5 11,9 28 15 NE 1021,3 10
20.04.2018 15:00:00 19,4 12,7 24 13 ENE 1022,2 10
20.04.2018 14:00:00 19,3 13,3 22 12 ENE 1022,1 20
20.04.2018 13:00:00 18,6 13,9 24 13 ENE 1022,3 10
20.04.2018 12:00:00 17,7 14,1 21 11 ENE 1022,3 10
20.04.2018 11:00:00 17,4 13,8 18 10 ENE 1022,1 12
20.04.2018 10:00:00 16,5 13,2 22 12 ENE 1021,9 8
20.04.2018 09:00:00 15,2 13,0 11 6 NE 1021,8 10
20.04.2018 08:00:00 14,5 12,7 15 8 NNE 1021,7 14
20.04.2018 07:00:00 11,8 10,4 8 4 NNW 1022,0 9
20.04.2018 06:00:00 11,3 10,2 0 0 N 1021,8 10
20.04.2018 05:00:00 12,6 11,3 2 1 SSW 1021,9 10
20.04.2018 04:00:00 13,5 11,7 9 5 NE 1021,8 10
20.04.2018 03:00:00 13,8 11,8 9 5 NNE 1022,4 10
20.04.2018 02:00:00 13,4 11,8 11 6 NNE 1022,9 14
20.04.2018 01:00:00 13,7 12,1 11 6 NNE 1023,3 10
20.04.2018 00:00:00 13,9 12,4 11 6 NE 1023,4 10
19.04.2018 23:00:00 14,2 12,6 13 7 NE 1023,8 12
19.04.2018 22:00:00 14,5 12,5 11 6 NE 1023,8 10
19.04.2018 21:00:00 15,2 12,8 15 8 ENE 1023,5 10
19.04.2018 20:00:00 15,6 12,9 16 9 ENE 1023,0 20
19.04.2018 19:00:00 16,5 13,1 15 8 ENE 1022,9 10
19.04.2018 18:00:00 16,6 12,9 18 10 ENE 1022,9 10
19.04.2018 17:00:00 17,6 12,8 18 10 ENE 1023,2 20
19.04.2018 16:00:00 18,2 13,9 18 10 ENE 1023,7 10
19.04.2018 15:00:00 18,7 12,7 24 13 ENE 1023,9 10
19.04.2018 14:00:00 18,4 13,1 18 10 E 1024,1 10

tt = Température de l'air
td = dewpoint
ff = Vitesse du vent
dd = Direction du vent
ppp = reduced air pressure
vv = visibility

stations d'obs. à proximité